Location: Middelsbur
(53.6609°N, 7.5020°E)
Time: 00:31:39
(UTC+00:00)

Cosmos 2297 - Pass Details

Date: 06 July 2020
Orbit: 835 x 859 km, 71.0° (Epoch: 03 August)

Event Time Altitude Azimuth Distance (km) Brightness Sun altitude
Rises 22:31:21 0° 327° (NNW) 3,447 8.4 -12.5°
Reaches altitude 10° 22:33:50 10° 326° (NW) 2,506 7.4 -12.6°
Maximum altitude 22:39:35 76° 242° (WSW) 886 3.8 -12.8°
Enters shadow 22:43:56 18° 158° (SSE) 1,984 5.0 -13.0°
